Location: Petruro
(41.0333°N, 14.7833°E)
Time: 09:06:46
(UTC+00:00)

DELTA 2 R/B (1) - Pass Details

Date: 29 October 2021
Orbit: 790 x 802 km, 39.6° (Epoch: 28 November)

Event Time Altitude Azimuth Distance (km) Brightness Sun altitude
Rises 17:14:06 0° 226° (SW) 3,293 7.6 -14.5°
Reaches altitude 10° 17:16:46 10° 217° (SW) 2,364 6.6 -15.0°
Maximum altitude 17:21:47 35° 153° (SSE) 1,272 4.4 -15.9°
Enters shadow 17:24:15 24° 108° (ESE) 1,606 4.6 -16.4°
